NOAA 16 DEB, 41659

Orbit data source: Space-Track

NOAA 16 DEB, 41659 is space debris in SSO originally from a launch on Thu, 21 Sep 2000 UTC launched from the Air Force Western Test Range (AFWTR). Debris objects in space refer to the collection of defunct objects orbiting the Earth. Examples of debris include non-operational satellites, rocket bodies, and fragments generated from explosions, collisions, or faulty payload assembly.

Loading next visibility...
Identifier
41659, 2000-055NY
Orbit
SSO
Country
Flag of USUS
Related business
Manufacturer
Unknown
Mission
Spacecraft
Bus & Motor
Unknown
Mass
Unknown
Launch date (UTC)
2000-09-21 (25 years ago)
Launch vehicle
Unknown
Launch site
Air Force Western Test Range (AFWTR)
Object type
Payload
Rocket body
Debris
Shape & HBR
Unknown shape, 0.1 m
Radar Cross Section
Small (<0.1 m²)

Expand to show TLE details & history
Last TLE update: 2 days ago

TLE from 2 days ago
0 NOAA 16 DEB
1 41659U 00055NY  25348.32602297  .00011482  00000-0  32614-2 0  9992
2 41659  98.8704 119.0658 0011895 320.3585  39.6734 14.45516299500545
Epoch: 2025-12-14T07:49Z
TLE epoch observation values (Epoch: 2025-12-14T07:49:28.384Z)
Latitude
-0.00008°
Longitude
-81.543°
Altitude
736.76 km
Speed
7.49 km/s
True Right ascension
07h 56m 15s
True Declination
0° 00' 00"
Sunlit
Object was in full shadow at epoch
Visualization orbit readout
Latitude
Unknown
Longitude
Unknown
Altitude
Unknown
Speed
Unknown
Apparent Right ascension
Unknown
Apparent Declination
Unknown
Sunlit
N/A
Visualization observer readout
Local Sidereal Time
22:10:56
Azimuth
Unknown
Elevation
Unknown
Doppler factor
Unknown
Orbital elements
Apogee altitude
745.927 km
Perigee altitude
728.999 km
Semi-major axis
7,115.6 km
Eccentricity
0.00119
Inclination
98.8704°
RAAN
119.0658°
Arg. of periapsis
320.3585°
True anomaly
39.76052°
Mean anomaly
39.6734°
Eccentric anomaly
39.71695°
Mean motion
3.61598 °/min
Orbital period
99.56 mins
BSTAR
0.0032614
Loading maneuver chart data...
Computing Atmospheric mass density...
Loading historical data...
Loading historical data...
Loading historical data...
Loading historical data...
Loading historical data...
Loading historical data...
Loading historical data...

Documentation

Showing up to 5 results
|